Starlink 36171

operational
NORAD ID: 67027 Int'l Des: 2025-293 Owner: SPXS Country: US Constellation: starlink
LEOCIRCULAR

Starlink 36171について

説明を読み込み中...

リアルタイム位置

3D地球を読み込み中...

次回通過

高度履歴

Altitude vs Time

uPlot chart will show altitude changes over time

軌道要素

1 67027C 25293AA 25346.09979167 .00077826 00000+0 10394-3 0 3466
2 67027 69.9969 325.9379 0005157 264.8909 179.1693 16.06265356 13
Epoch: Dec 12, 2025 • Age: 56 hours

現在のステータス

高度 259.1 km
速度 7.75 km/s
衛星直下点 10.98°N, 121.69°E
打ち上げ日 Dec 10, 2025
運用期間 3 days
タイプ internet

技術仕様

分類 Payload
質量 575.00 kg
乾燥質量 530.00 kg
総質量 575.00 kg
長さ 0.30 m
直径 4.10 m
スパン 29.00 m
形状 Box + pan
製造者 SPXS
バスタイプ Starlink V2MO
フェーズステータス In Orbit
所有者/国 SPXS/US

大規模コンステレーション

Loading constellations...